sat.trackr.live / text

‹ back to catalog

STARLINK-11285 [DTC]

NORAD 61578 · 2024-187E

PAYLOAD ACTIVE UNKNOWN

§ Identity

Operator
Country
US
Launch date
2024-10-18
Launch site
AFETR
Launch vehicle
Mass (kg)
RCS (m²)

Purposes: comms

External: N2YO · Heavens-Above · Gunter

§ Orbital elements

Epoch: 2026-09-21T17:32:51.671040Z

Period
91.74 min
Inclination
53.1624°
Eccentricity
0.0001176
Mean motion
15.69710306 rev/d
Perigee alt
358.9 km
Apogee alt
360.5 km
Semi-major
6,737.9 km
B*
1.8778e-6
RAAN
49.6296°
Arg perigee
64.6237°
Mean anomaly
295.4902°
Rev number
11,149

§ Raw data

STARLINK-11285 [DTC]1 61578U 24187E   26264.73115360 -.00000361  00000+0  18778-5 0  99912 61578  53.1624  49.6296 0001176  64.6237 295.4902 15.69710306111494

JSON: /api/v1/satellites/61578 · /tle

For live sub-satellite position, see the globe view (requires WebGL).

§ Visibility from observer

Set your observer location to see the next 7 days of passes ≥ 10°. The values pass through the URL so the page stays shareable.

No JS? Fill the form by hand. The geolocation button needs JavaScript.